Date,TemperatureHighF,TemperatureAvgF,TemperatureLowF,DewpointHighF,DewpointAvgF,DewpointLowF,HumidityHigh,HumidityAvg,HumidityLow,PressureMaxIn,PressureMinIn,WindSpeedMaxMPH,WindSpeedAvgMPH,GustSpeedMaxMPH,PrecipitationSumIn
2013-10-1,77,57,46,57,51,45,100,86,48,29.57,29.40,8,1,8,0.00
2013-10-2,77,61,52,64,56,52,100,85,50,29.53,29.38,14,2,14,0.00
2013-10-3,77,58,48,63,51,44,100,80,35,29.66,29.52,7,1,7,0.00
2013-10-4,66,54,45,56,50,44,100,88,63,29.68,29.58,8,1,8,0.00
2013-10-5,63,58,56,56,53,50,93,82,66,29.70,29.61,7,1,7,0.00
2013-10-6,57,52,48,54,46,41,98,83,61,29.78,29.67,12,2,12,0.17
2013-10-7,70,58,51,66,57,50,100,95,85,29.68,29.21,29,2,35,0.60
2013-10-8,61,51,38,53,42,33,100,77,37,29.95,29.46,16,2,18,0.00
2013-10-9,66,45,35,48,39,35,100,84,43,30.06,29.91,10,1,10,0.00
2013-10-10,63,47,38,50,43,37,100,88,52,29.92,29.74,9,1,9,0.00
2013-10-11,68,51,43,56,47,42,99,87,58,29.76,29.67,5,1,5,0.00
2013-10-12,61,50,40,56,47,40,100,91,77,29.95,29.75,13,1,13,0.00
2013-10-13,65,51,42,53,46,41,100,83,53,30.00,29.90,13,1,13,0.00
2013-10-14,63,53,42,53,48,41,98,85,63,29.93,29.77,10,1,10,0.00
2013-10-15,65,58,53,56,53,51,97,86,70,29.83,29.70,7,1,7,0.00
2013-10-16,66,56,49,54,50,48,97,84,61,29.70,29.41,11,1,12,0.00
2013-10-17,70,57,50,59,49,44,98,77,42,29.42,29.25,12,1,12,0.11
2013-10-18,62,54,45,56,48,36,100,82,56,29.45,29.15,13,2,17,0.50
2013-10-19,63,50,36,51,41,35,99,76,49,29.51,29.25,13,2,15,0.00
2013-10-20,57,50,37,48,38,32,96,68,40,29.55,29.20,19,3,21,0.03
2013-10-21,63,46,33,47,39,33,99,80,45,29.65,29.46,15,1,15,0.00
2013-10-22,56,49,35,48,42,31,90,77,62,29.47,29.26,14,3,15,0.00
2013-10-23,52,40,32,39,34,31,97,78,49,29.33,29.15,8,1,8,0.00
2013-10-24,47,41,30,37,32,28,96,71,47,29.41,29.20,23,3,23,0.01
2013-10-25,45,37,31,40,30,24,99,77,44,29.66,29.41,18,2,21,0.00
2013-10-26,47,39,28,36,30,26,94,73,45,29.67,29.36,18,2,19,0.00
2013-10-27,52,41,29,38,32,26,91,71,40,29.58,29.31,15,2,21,0.00
2013-10-28,51,37,28,37,29,23,94,74,51,29.90,29.57,23,2,25,0.00
2013-10-29,48,31,20,35,23,16,98,73,30,30.01,29.89,8,1,8,0.00
2013-10-30,49,35,26,37,28,21,94,78,54,29.90,29.73,12,1,12,0.00
2013-10-31,57,41,30,56,40,29,98,96,91,29.78,29.24,15,2,16,0.21